Date String (YYYY-MM-DD hh:mm:ss) UTC,Instrument flags,Ambient pressure (hPa),Sample flow (lpm),Bypass flow (lpm),Sample temperature (°C),Ambient temperature (°C),ASC tube jacket temperature (°C),LED temperature (°C),Box temperature (°C),Sample RH (%),Span deviation,Mass concentration (μg/m³),Mass concentration (μg/m³),Mass concentration (μg/m³)
DateTimeUTC,F1_M11,P_M11,Q1_M11,Q2_M11,T1_M11,T2_M11,T3_M11,T4_M11,T5_M11,U1_M11,ZSPAN_M11,X0_M11,X2_M11,X1_M11
2023-05-27 05:00:00,,0831.2,5.00,0.00,29.9,28.1,00.0,38.3,31.4,27.6,0000.0,0003.25,0002.24,0001.74
2023-05-27 05:01:00,,0831.2,4.99,0.00,29.9,28.1,00.0,38.3,31.4,27.5,0000.0,0003.14,0002.20,0001.74
2023-05-27 05:02:00,,0831.2,5.00,0.00,29.9,28.1,00.0,38.3,31.4,27.5,0000.0,0003.06,0002.17,0001.73
2023-05-27 05:03:00,,0831.2,5.00,0.00,29.8,28.0,00.0,38.3,31.3,26.9,0000.0,0003.03,0002.15,0001.72
2023-05-27 05:04:00,,0831.2,5.00,0.00,29.8,27.9,00.0,38.3,31.3,27.2,0000.0,0003.15,0002.17,0001.72
2023-05-27 05:05:00,,0831.2,5.00,0.00,29.8,27.9,00.0,38.3,31.3,27.1,0000.0,0003.15,0002.18,0001.71
2023-05-27 05:06:00,,0831.2,5.00,0.00,29.8,27.8,00.0,38.3,31.3,26.9,0000.0,0003.09,0002.16,0001.70
2023-05-27 05:07:00,,0831.2,5.00,0.00,29.7,27.8,00.0,38.3,31.2,26.8,0000.0,0003.01,0002.11,0001.68
2023-05-27 05:08:00,,0831.2,4.99,0.00,29.7,27.8,00.0,38.2,31.2,26.8,0000.0,0003.07,0002.12,0001.67
2023-05-27 05:09:00,,0831.2,5.00,0.00,29.7,27.8,00.0,38.2,31.2,26.9,0000.0,0003.08,0002.10,0001.67
2023-05-27 05:10:00,,0831.2,5.00,0.00,29.7,27.8,00.0,38.2,31.2,26.9,0000.0,0002.97,0002.05,0001.66
2023-05-27 05:11:00,,0831.2,5.00,0.00,29.7,27.8,00.0,38.2,31.2,26.4,0000.0,0003.04,0002.05,0001.65
2023-05-27 05:12:00,,0831.2,5.00,0.00,29.7,27.8,00.0,38.2,31.2,26.1,0000.0,0003.13,0002.09,0001.66
2023-05-27 05:13:00,,0831.2,5.00,0.00,29.7,27.9,00.0,38.2,31.2,26.2,0000.0,0003.10,0002.08,0001.66
2023-05-27 05:14:00,,0831.1,5.00,0.00,29.7,27.9,00.0,38.2,31.2,26.4,0000.0,0003.11,0002.10,0001.65
2023-05-27 05:15:00,,0831.1,5.01,0.00,29.7,27.9,00.0,38.2,31.2,26.4,0000.0,0003.00,0002.08,0001.65
2023-05-27 05:16:00,,0831.1,5.00,0.00,29.7,28.0,00.0,38.1,31.2,26.0,0000.0,0002.98,0002.04,0001.64
2023-05-27 05:17:00,,0831.1,5.00,0.00,29.7,28.0,00.0,38.1,31.2,26.0,0000.0,0003.13,0002.09,0001.65
2023-05-27 05:18:00,,0831.1,5.00,0.00,29.7,28.0,00.0,38.1,31.2,26.2,0000.0,0003.24,0002.16,0001.68
2023-05-27 05:19:00,,0831.0,5.00,0.00,29.7,28.0,00.0,38.1,31.2,26.1,0000.0,0003.33,0002.24,0001.70
2023-05-27 05:20:00,,0830.9,5.00,0.00,29.7,28.0,00.0,38.1,31.2,26.0,0000.0,0003.35,0002.26,0001.70
2023-05-27 05:21:00,,0830.9,5.00,0.00,29.7,28.0,00.0,38.1,31.3,25.9,0000.0,0003.41,0002.28,0001.72
2023-05-27 05:22:00,,0830.9,5.00,0.00,29.7,28.1,00.0,38.1,31.3,25.9,0000.0,0003.37,0002.28,0001.73
2023-05-27 05:23:00,,0830.9,4.99,0.00,29.7,28.1,00.0,38.1,31.3,25.9,0000.0,0003.30,0002.25,0001.73
2023-05-27 05:24:00,,0830.9,5.00,0.00,29.7,28.0,00.0,38.1,31.3,25.9,0000.0,0003.34,0002.27,0001.74
2023-05-27 05:25:00,,0830.9,5.00,0.00,29.7,28.0,00.0,38.1,31.3,26.0,0000.0,0003.25,0002.25,0001.77
2023-05-27 05:26:00,,0830.9,5.01,0.00,29.7,28.0,00.0,38.1,31.3,25.9,0000.0,0003.17,0002.23,0001.79
2023-05-27 05:27:00,,0830.9,5.01,0.00,29.7,28.0,00.0,38.1,31.3,25.9,0000.0,0003.20,0002.23,0001.78
2023-05-27 05:28:00,,0830.9,5.00,0.00,29.7,28.0,00.0,38.1,31.3,25.8,0000.0,0003.35,0002.22,0001.78
2023-05-27 05:29:00,,0830.9,5.00,0.00,29.7,28.0,00.0,38.1,31.3,25.8,0000.0,0003.35,0002.22,0001.77
2023-05-27 05:30:00,,0830.9,4.99,0.00,29.7,28.0,00.0,38.1,31.3,25.9,0000.0,0003.28,0002.17,0001.77
2023-05-27 05:31:00,,0830.9,4.99,0.00,29.7,28.0,00.0,38.1,31.3,26.1,0000.0,0003.31,0002.19,0001.78
2023-05-27 05:32:00,,0831.0,5.01,0.00,29.7,28.1,00.0,38.1,31.3,26.4,0000.0,0003.41,0002.23,0001.79
2023-05-27 05:33:00,,0831.0,5.01,0.00,29.7,28.1,00.0,38.1,31.3,26.1,0000.0,0003.42,0002.23,0001.80
2023-05-27 05:34:00,,0830.9,4.99,0.00,29.7,28.1,00.0,38.1,31.3,26.0,0000.0,0003.47,0002.26,0001.82
2023-05-27 05:35:00,,0830.9,5.00,0.00,29.7,28.0,00.0,38.1,31.3,25.7,0000.0,0003.51,0002.30,0001.83
2023-05-27 05:36:00,,0830.8,5.00,0.00,29.7,28.0,00.0,38.1,31.3,25.7,0000.0,0005.34,0002.34,0001.83
2023-05-27 05:37:00,,0830.8,4.99,0.00,29.7,28.0,00.0,38.1,31.3,25.7,0000.0,0006.07,0002.38,0001.82
2023-05-27 05:38:00,,0830.7,4.99,0.00,29.7,28.0,00.0,38.1,31.3,25.8,0000.0,0006.34,0002.48,0001.84
2023-05-27 05:39:00,,0830.7,5.01,0.00,29.7,28.0,00.0,38.1,31.3,25.9,0000.0,0006.10,0002.51,0001.86
2023-05-27 05:40:00,,0830.7,5.01,0.00,29.7,28.0,00.0,38.1,31.3,25.9,0000.0,0006.10,0002.50,0001.89
2023-05-27 05:41:00,,0830.7,5.00,0.00,29.7,28.0,00.0,38.1,31.2,26.0,0000.0,0006.30,0002.55,0001.90
2023-05-27 05:42:00,,0830.6,5.00,0.00,29.7,28.0,00.0,38.1,31.3,26.0,0000.0,0006.61,0002.53,0001.90
2023-05-27 05:43:00,,0830.7,5.00,0.00,29.7,28.0,00.0,38.1,31.3,26.0,0000.0,0006.42,0002.48,0001.89
2023-05-27 05:44:00,,0830.7,5.00,0.00,29.7,28.0,00.0,38.1,31.2,26.0,0000.0,0006.48,0002.49,0001.87
2023-05-27 05:45:00,,0830.7,5.00,0.00,29.7,28.0,00.0,38.1,31.3,26.0,0000.0,0006.43,0002.44,0001.84
2023-05-27 05:46:00,,0830.7,5.01,0.00,29.7,28.0,00.0,38.1,31.3,26.1,0000.0,0006.36,0002.39,0001.81
2023-05-27 05:47:00,,0830.8,5.01,0.00,29.7,28.0,00.0,38.1,31.3,26.1,0000.0,0004.97,0002.36,0001.79
2023-05-27 05:48:00,,0830.9,4.98,0.00,29.7,28.0,00.0,38.1,31.2,26.0,0000.0,0003.88,0002.28,0001.77
2023-05-27 05:49:00,,0830.8,4.99,0.00,29.7,28.0,00.0,38.1,31.3,26.0,0000.0,0003.72,0002.21,0001.75
2023-05-27 05:50:00,,0830.8,5.01,0.00,29.7,28.0,00.0,38.1,31.2,25.9,0000.0,0003.75,0002.21,0001.75
2023-05-27 05:51:00,,0830.8,5.01,0.00,29.7,28.0,00.0,38.1,31.2,25.5,0000.0,0003.80,0002.18,0001.73
2023-05-27 05:52:00,,0830.8,5.00,0.00,29.7,28.0,00.0,38.1,31.2,25.4,0000.0,0003.60,0002.10,0001.69
2023-05-27 05:53:00,,0830.8,4.99,0.00,29.7,28.0,00.0,38.1,31.2,25.4,0000.0,0003.25,0002.11,0001.68
2023-05-27 05:54:00,,0830.8,4.99,0.00,29.7,28.1,00.0,38.1,31.2,25.2,0000.0,0003.27,0002.12,0001.68
2023-05-27 05:55:00,,0830.8,5.01,0.00,29.7,28.1,00.0,38.1,31.3,25.2,0000.0,0003.30,0002.13,0001.70
2023-05-27 05:56:00,,0830.8,5.01,0.00,29.7,28.1,00.0,38.1,31.3,25.1,0000.0,0003.38,0002.17,0001.72
2023-05-27 05:57:00,,0830.9,4.99,0.00,29.7,28.0,00.0,38.1,31.3,25.0,0000.0,0003.50,0002.23,0001.74
2023-05-27 05:58:00,,0830.9,4.99,0.00,29.7,28.0,00.0,38.1,31.2,25.0,0000.0,0003.48,0002.22,0001.76
2023-05-27 05:59:00,,0830.9,5.00,0.00,29.7,28.0,00.0,38.1,31.3,25.0,0000.0,0003.58,0002.29,0001.80
